Location: Clatteringshaws Loch
(55.0508°N, 4.2860°W)
Time: 07:09:24
(UTC+01:00)

SR - Visible Passes

Search period start: 18 June 2018 00:00
Search period end: 28 June 2018 00:00
Orbit: 575 x 882 km, 66.7° (Epoch: 17 June)

Date Brightness Start Highest point End Pass type
(mag) Time Alt. Az. Time Alt. Az. Time Alt. Az.
18 Jun ? 00:28:55 10° SW 00:34:00 80° SE 00:39:37 10° NE visible
18 Jun ? 02:11:47 10° W 02:16:41 37° NNW 02:21:57 10° NE visible
18 Jun ? 23:39:41 10° SSW 23:44:33 50° ESE 23:49:54 10° NE visible
19 Jun ? 01:21:42 10° WSW 01:26:46 49° NW 01:32:17 10° NE visible
19 Jun ? 03:05:32 10° WNW 03:10:09 27° N 03:15:01 10° NE visible
19 Jun ? 22:50:54 10° S 22:55:17 30° ESE 23:00:01 10° NE visible
20 Jun ? 00:31:51 10° SW 00:37:00 70° NW 00:42:40 10° NE visible
20 Jun ? 02:15:18 10° W 02:20:03 30° NNW 02:25:07 10° NE visible
20 Jun ? 23:42:17 10° SW 23:47:24 78° SE 23:53:01 10° NE visible
21 Jun ? 01:25:06 10° W 01:30:03 38° NNW 01:35:22 10° NE visible
21 Jun ? 03:09:03 10° WNW 03:13:38 25° N 03:18:27 10° NE visible
21 Jun ? 22:53:04 10° SSW 22:57:58 48° ESE 23:03:18 10° NE visible
22 Jun ? 00:35:02 10° WSW 00:40:09 50° NW 00:45:42 10° NE visible
22 Jun ? 02:18:51 10° WNW 02:23:30 27° N 02:28:23 10° NE visible
22 Jun ? 23:45:12 10° SW 23:50:23 73° NW 23:56:05 10° NE visible
23 Jun ? 01:28:37 10° W 01:33:25 31° NNW 01:38:31 10° NE visible
23 Jun ? 03:12:27 10° NW 03:17:08 26° N 03:22:01 10° ENE visible
23 Jun ? 22:55:39 10° SSW 23:00:48 75° SE 23:06:26 10° NE visible
24 Jun ? 00:38:25 10° W 00:43:24 38° NNW 00:48:46 10° NE visible
24 Jun ? 02:22:22 10° WNW 02:26:59 26° N 02:31:49 10° NE visible
24 Jun ? 23:48:22 10° WSW 23:53:31 52° NW 23:59:07 10° NE visible
25 Jun ? 01:32:10 10° WNW 01:36:51 27° NNW 01:41:47 10° NE visible
25 Jun ? 03:15:43 10° NW 03:20:36 28° NNE 03:25:40 10° ENE visible
25 Jun ? 22:58:33 10° SW 23:03:46 75° NW 23:09:29 10° NE visible
26 Jun ? 00:41:55 10° W 00:46:46 32° NNW 00:51:55 10° NE visible
26 Jun ? 02:25:47 10° NW 02:30:29 26° N 02:35:22 10° ENE visible
26 Jun ? 23:51:43 10° W 23:56:45 39° NNW 00:02:11 10° NE visible
27 Jun ? 01:35:41 10° WNW 01:40:20 26° N 01:45:12 10° NE visible
27 Jun ? 03:18:53 10° NW 03:24:03 33° NNE 03:29:21 10° E visible
27 Jun ? 23:01:41 10° WSW 23:06:53 53° NW 23:12:32 10° NE visible
